Home > Weather > Mexico City > Past weeks

Flag for Mexico Weather for the Past 2 Weeks in Mexico City, Federal District, Mexico

Now
43 °F

Clear.


Feels Like: 43 °F
Forecast: 34 / 75 °F
Wind: No wind

Location: Mexico City / Licenci

Current Time: Feb 14, 2016 at 4:34:01 AM

Latest Report: Feb 14, 2016 at 3:48 AM


Visibility: 7 mi

Pressure: 30.28 "Hg (23.02 "Hg at 2241m altitude)

Humidity: 53%

Dew point: 27 °F

Location of Mexico CityLocation

Historic Weather in Mexico City — Graph

°F

Mexico City Temperature Yesterday

Maximum temperature yesterday: 72 °F (at 4:47 PM)
Minimum temperature yesterday: 39 °F (at 7:22 AM)
Average temperature yesterday: 54 °F

High & Low Weather Summary for the Past Weeks

 TemperatureHumidityPressure
High79 °F (Feb 1, 3:45 PM)100% (Feb 4, 6:47 AM)30.52 "Hg (Feb 4, 6:47 AM)
Low37 °F (Feb 7, 5:47 AM)6% (Feb 7, 3:46 PM)29.60 "Hg (Feb 3, 2:45 PM)
Average55 °F45%30.23 "Hg
* Reported Jan 30 2:46 AM — Feb 14 2:49 AM, Mexico City, Weather by CustomWeather, © 2016

Note: Actual official high and low records may vary slightly from our data, if they occured in-between our weather recording intervals... More about our weather records

Advertising

Mexico City Weather History for the Previous 24 Hours

 ConditionsComfort  
Time TempWeatherWind HumidityBarometerVisibility
2:49 AM
Sun, Feb 14
43 °FClear.6 mph61%29.93 "Hg10 mi
1:48 AM45 °FClear.6 mph49%30.32 "Hg10 mi
12:48 AM50 °FClear.6 mph43%30.33 "Hg10 mi
10:45 PM
Sat, Feb 13
54 °FClear.8 mph41%30.36 "Hg10 mi
8:45 PM59 °FClear.9 mph23%30.02 "Hg10 mi
7:49 PM61 °FClear.8 mph23%30.30 "Hg10 mi
6:45 PM64 °FPassing clouds.8 mph16%30.28 "Hg8 mi
4:47 PM72 °FSunny.7 mph7%30.26 "Hg10 mi
3:45 PM70 °FPassing clouds.No wind8%30.27 "Hg10 mi
2:46 PM68 °FScattered clouds.5 mph9%29.91 "Hg10 mi
1:50 PM66 °FSunny.5 mph10%30.34 "Hg10 mi
11:52 AM59 °FSunny.8 mph18%30.07 "Hg10 mi
10:45 AM54 °FPassing clouds.7 mph35%30.46 "Hg7 mi
9:58 AM52 °FSunny.6 mph41%30.47 "Hg7 mi
9:23 AM46 °FSunny.3 mph50%30.47 "Hg7 mi
8:46 AM45 °FSunny.6 mph49%30.16 "Hg7 mi
8:23 AM43 °FSunny.7 mph49%30.46 "Hg8 mi
7:52 AM39 °FSunny.7 mph56%30.46 "Hg10 mi
7:22 AM39 °FSunny.7 mph61%30.46 "Hg10 mi
Weather by CustomWeather, © 2016

See weather overviewHow to use our weather pages